Location: Newark
(48.5583°N, 3.1564°W)
Time: 21:46:06
(UTC+00:00)

OTV 5 (USA 277) - Visible Passes

Search period start: 18 October 2019 00:00
Search period end: 28 October 2019 00:00
Orbit: 310 x 324 km, 54.5° (Epoch: 08 October)

Date Brightness Start Highest point End Pass type
(mag) Time Alt. Az. Time Alt. Az. Time Alt. Az.
18 Oct ? 04:36:01 42° E 04:36:01 42° E 04:38:04 10° ESE visible
19 Oct ? 04:50:31 44° SSE 04:50:31 44° SSE 04:52:37 10° SE visible
20 Oct ? 05:05:08 22° S 05:05:08 22° S 05:06:42 10° SSE visible
